Regional Weather Roundup
Issued by NWS

Home | Current Version | Previous Version | Graphics & Text | Print | Product List | Glossary Off
Versions: 1 2 3 4 5 6 7 8 9 10 11 12 13 14 15 16 17 18 19 20 21 22 23 24 25 26 27 28 29 30 31 32 33 34 35 36 37 38 39 40 41 42 43 44 45 46 47 48 49 50

000
ASUS43 KDMX 281707
RWRIA

WEATHER ROUNDUP FOR IOWA
NATIONAL WEATHER SERVICE DES MOINES IA
1200 PM CDT TUE JUL 28 2015

NOTE: "FAIR" INDICATES FEW OR NO CLOUDS BELOW 12,000 FEET WITH NO
SIGNIFICANT WEATHER AND/OR OBSTRUCTIONS TO VISIBILITY.

* - THESE STATIONS ARE NOT NWS STATIONS...THUS NOT UNDER NWS
QUALITY CONTROL.  THEY ALSO DO NOT REPORT WEATHER SUCH
AS PRECIPITATION OR FOG.

IAZ001>003-012>014-020>022-031>034-043>046-281800-
   NORTHWEST IOWA

CITY           SKY/WX    TMP DP  RH WIND       PRES   REMARKS
CARROLL *      CLOUDY    73  72  94 NW8G15    29.87R
CHEROKEE *     CLOUDY    75  72  88 S7        29.87R
DENISON *      MOSUNNY   75  72  88 SE12      29.84F
LE MARS *      CLOUDY    77  72  83 SW9G16    29.88R
ORANGE CITY *  PTSUNNY   73  70  88 S9        29.87S
SHELDON *      PTSUNNY   77  70  78 S12G18    29.86R
SIOUX CITY     PTSUNNY   76  70  82 S5        29.87R
SPENCER        CLOUDY    78  69  73 S13       29.87R HX  80
STORM LAKE *   PTSUNNY   73  70  88 CALM      29.87S
$$

IAZ055>058-069>071-079>083-090>094-281800-
   SOUTHWEST IOWA

CITY           SKY/WX    TMP DP  RH WIND       PRES   REMARKS
ATLANTIC *     SUNNY     79  73  83 SE12G20   29.86F HX  82
AUDUBON *      CLOUDY    75  72  88 S14G20    29.87R
CLARINDA *     MOSUNNY   84  77  79 SE12      29.89F HX  94
COUNCIL BLFS * MOSUNNY   82  75  78 SE13G21   29.86S HX  89
CRESTON *        N/A     79  72  78 SE15      29.89F HX  82
HARLAN  *      SUNNY     79  79 100 S13       29.89R HX  83
LAMONI         CLOUDY    84  77  79 NE10      29.93F HX  94
RED OAK *      SUNNY     82  75  78 SE16G22   29.86F HX  89
SHENANDOAH *   SUNNY     86  77  74 SE13G21   29.86F HX  97
$$

IAZ047>049-059>061-072>074-084-281800-
   CENTRAL IOWA

CITY           SKY/WX    TMP DP  RH WIND       PRES   REMARKS
AMES           LGT RAIN  72  71  97 SE16G24   29.80F
ANKENY *       CLOUDY    75  75 100 MISG      29.85F
CHARITON *     SUNNY     82  75  78 SE8       29.93F HX  89
DES MOINES     CLOUDY    78  73  84 SE14G21   29.87F HX  81
GRINNELL*      CLOUDY    73  70  88 E12       29.98R
KNOXVILLE *    PTSUNNY   79  73  83 NE8       29.94S HX  82
MARSHALLTOWN   LGT RAIN  73  71  93 SE16      29.90F
PELLA *        CLOUDY    79  77  94 NE5       29.97R HX  83
PERRY *          N/A     75  73  94 SE17      29.82F
$$

IAZ004>006-015-016-023>025-035-036-281800-
   NORTH CENTRAL IOWA

CITY           SKY/WX    TMP DP  RH WIND       PRES   REMARKS
ALGONA *       SUNNY     75  70  83 S9G16     29.86R
CLARION *      SUNNY     75  72  88 SE14G21   29.83F
ESTHERVILLE    CLOUDY    76  70  82 S14       29.86R
FORT DODGE *   CLOUDY    75  70  83 E9        29.85S
MASON CITY     CLOUDY    74  73  97 SE7       29.88R
FOREST CITY *  SUNNY     75  72  88 SE9       29.87R
IOWA FALLS *     N/A     72  72 100 SE9       29.89S
$$

IAZ007>011-017>019-026>030-037>042-050>054-066-281800-
   NORTHEAST IOWA

CITY           SKY/WX    TMP DP  RH WIND       PRES   REMARKS
CEDAR RAPIDS   TSTM      69  69 100 E7        30.02F FOG
CHARLES CITY * MOSUNNY   73  73 100 E12       29.89R
CLINTON *      CLOUDY    75  72  88 E6        30.01R
DECORAH *      CLOUDY    72  72 100 SE13G22   29.88F
DUBUQUE        CLOUDY    77  73  87 S9        30.00S
MONTICELLO *   LGT RAIN  75  73  94 SE5       30.01R
OELWEIN *        N/A     70  70 100 SE13G18   29.93F
WATERLOO       CLOUDY    70  68  93 SE20      29.88F
$$

IAZ064-065-067-068-078-281800-
   EAST CENTRAL IOWA

CITY           SKY/WX    TMP DP  RH WIND       PRES   REMARKS
DAVENPORT      CLOUDY    79  74  84 SE5       29.99R HX  82
IOWA CITY      TSTM      72  70  93 N18G33    30.03R VSB 1
MT. PLEASANT * PTSUNNY   90  75  62 S3        29.97R HX 100
MUSCATINE *    MOSUNNY   86  75  70 VRB5      29.98R HX  95
QUAD CITIES    PTSUNNY   79  74  84 E9        29.98R HX  82
$$

IAZ062-063-075>077-085>089-095>099-281800-
   SOUTHEAST IOWA

CITY           SKY/WX    TMP DP  RH WIND       PRES   REMARKS
BURLINGTON     MOSUNNY   85  78  80 CALM      29.96R HX  96
FAIRFIELD *    MOSUNNY   86  77  74 W7        29.97R HX  97
FORT MADISON * SUNNY     86  81  84 CALM      29.97R HX 102
KEOKUK *       MOSUNNY   88  79  74 CALM      29.95S HX 102
OSKALOOSA *      N/A     81  75  83 NE12      29.98R HX  86
CENTERVILLE *  MOSUNNY   82  77  83 N8        29.97S HX  91
OTTUMWA        CLOUDY    82  77  84 N8        29.95R HX  90
WASHINGTON *   MOSUNNY   86  79  79 E5        29.98R HX  99
$$

ABBREVIATIONS USED IN REMARKS
   TC - TEMPERATURES IN CELSIUS
  WCI - WIND CHILL INDEX
   HX - HEAT INDEX
  VSB - VISIBILITY
$$




USA.gov is the U.S. government's official web portal to all federal, state and local government web resources and services.